Voltar ao catálogo

MOLNIYA 1-36

AtivoComunicaçõesHEO
NORAD 9880·PAYLOAD·🇷🇺 Russia

Lançado Mar 24, 1977 de Plesetsk Cosmodrome

Loading…

Próximas Passagens (próximas 24 horas)

TLE

AtualizadoSource: Space-Track

Época: Sep 13, 2026, 15:39 UTC

1 09880U 77021A   26256.65237316  .00000657  00000-0  00000-0 0  9994
2 09880  63.7013 101.2885 6771358 280.7316  15.0652  2.00339069260443

Acompanhe MOLNIYA 1-36 em tempo real com AllMySat

Download on the App Store